EW9688 Weather Reports


Display with metric or nautical units.
time (UTC)temp
F
wind
direction
speed
MPH
gust
MPH
rain 1hr
in
rain 24hr
in
rain mn
in
humidity
%
barometer
mb
20260506112217 28 141 1.0 1.0 0.00 0.00 0.00 94 1016.8
20260506111228 28 143 1.0 1.0 0.00 0.00 0.00 94 1016.7
20260506110241 28 141 1.0 1.0 0.00 0.01 0.00 94 1016.5
20260506105241 28 140 1.0 1.0 0.00 0.01 0.00 94 1016.6
20260506104232 28 143 1.0 1.0 0.00 0.01 0.00 94 1016.6
20260506103217 28 139 1.0 1.0 0.00 0.01 0.00 94 1016.5
20260506102217 28 139 1.0 2.0 0.00 0.01 0.00 94 1016.6
20260506101218 28 136 1.0 2.0 0.00 0.02 0.00 94 1016.7
20260506100218 28 137 1.0 1.0 0.00 0.02 0.00 94 1016.7
20260506095218 28 138 1.0 1.0 0.00 0.02 0.00 94 1016.7
20260506094218 28 146 1.0 1.0 0.00 0.03 0.00 94 1016.7
20260506093217 28 144 1.0 1.0 0.00 0.03 0.00 94 1016.6
20260506092217 28 165 1.0 2.0 0.00 0.03 0.00 94 1016.5
20260506091217 29 131 1.0 2.0 0.00 0.04 0.00 94 1016.5
20260506090222 29 119 2.0 3.0 0.00 0.04 0.00 94 1016.3
20260506085226 29 139 1.0 2.0 0.00 0.04 0.00 94 1016.3
20260506084228 29 148 1.0 1.0 0.00 0.04 0.00 94 1016.4
20260506083226 29 157 1.0 1.0 0.00 0.04 0.00 95 1016.4
20260506082227 29 146 1.0 2.0 0.00 0.04 0.00 95 1016.4
20260506081227 29 141 1.0 2.0 0.00 0.04 0.00 94 1016.4
20260506080247 29 153 1.0 1.0 0.00 0.04 0.00 95 1016.4
20260506073227 30 149 1.0 1.0 0.00 0.04 0.00 95 1016.4
20260506072227 30 147 1.0 1.0 0.00 0.04 0.00 95 1016.5
20260506071248 30 129 2.0 2.0 0.00 0.04 0.00 95 1016.4
20260506070227 30 143 1.0 1.0 0.00 0.04 0.00 95 1016.4
20260506062249 30 145 1.0 2.0 0.00 0.04 0.00 95 1016.1
20260506061220 30 150 1.0 2.0 0.00 0.04 0.00 95 1016.0
20260506060220 30 144 1.0 1.0 0.00 0.04 0.00 95 1015.9
20260506051221 30 146 1.0 2.0 0.00 0.04 0.04 94 1016.0
20260506050221 30 144 1.0 1.0 0.00 0.04 0.04 94 1015.8
20260506044221 30 142 1.0 1.0 0.00 0.04 0.04 94 1015.6
20260506043301 30 136 1.0 2.0 0.00 0.04 0.04 94 1015.7
20260506042221 30 145 1.0 1.0 0.00 0.04 0.04 94 1015.7
20260506041222 30 144 1.0 1.0 0.00 0.04 0.04 94 1015.8
20260506040222 30 145 1.0 1.0 0.00 0.04 0.04 94 1015.5
20260506035222 30 141 2.0 2.0 0.00 0.04 0.04 94 1015.7
20260506034222 30 145 1.0 1.0 0.00 0.04 0.04 94 1015.6
20260506033222 30 148 2.0 2.0 0.00 0.05 0.04 94 1015.6
20260506032223 30 140 2.0 2.0 0.00 0.06 0.04 94 1015.4
20260506031224 30 142 1.0 2.0 0.00 0.08 0.04 94 1015.3
20260506030223 30 144 1.0 2.0 0.00 0.11 0.04 94 1015.1
20260506025223 30 143 1.0 1.0 0.00 0.14 0.04 94 1015.0
20260506024223 30 144 1.0 1.0 0.00 0.18 0.04 94 1014.8
20260506023223 30 136 2.0 2.0 0.00 0.20 0.04 94 1014.7
20260506022224 30 147 1.0 1.0 0.00 0.20 0.04 94 1014.4
20260506021224 30 119 2.0 2.0 0.00 0.20 0.04 94 1014.4
20260506020224 30 141 2.0 2.0 0.00 0.20 0.04 94 1014.2
20260506015224 30 138 1.0 2.0 0.00 0.20 0.04 94 1014.1
20260506014224 31 144 1.0 2.0 0.00 0.20 0.04 94 1014.1
20260506013245 31 143 2.0 2.0 0.00 0.20 0.04 94 1013.9
20260506012225 31 139 2.0 2.0 0.00 0.20 0.04 94 1014.0
20260506011225 31 143 1.0 2.0 0.00 0.20 0.04 94 1013.8
20260506010225 31 145 1.0 1.0 0.00 0.20 0.04 94 1013.7
20260506005225 31 148 2.0 2.0 0.00 0.20 0.04 94 1013.6
20260506004225 31 135 2.0 2.0 0.00 0.20 0.04 94 1013.7
20260506003225 31 146 1.0 1.0 0.00 0.20 0.04 94 1013.7
20260506002226 31 151 2.0 2.0 0.00 0.20 0.04 94 1013.6
20260506001226 31 142 2.0 2.0 0.00 0.20 0.04 95 1013.6
20260506000231 31 154 2.0 2.0 0.00 0.20 0.04 95 1013.5
20260505235226 31 116 2.0 2.0 0.00 0.20 0.04 95 1013.4
20260505234246 31 134 2.0 2.0 0.00 0.20 0.04 95 1013.5
20260505233232 31 120 2.0 2.0 0.00 0.20 0.04 95 1013.3
20260505232226 31 127 2.0 2.0 0.00 0.20 0.04 95 1013.3
20260505231227 30 99 3.0 3.0 0.00 0.20 0.04 95 1013.2
20260505230232 31 73 2.0 3.0 0.00 0.20 0.04 95 1013.3
20260505225227 31 95 2.0 2.0 0.00 0.20 0.04 95 1013.2
20260505224218 31 70 3.0 5.0 0.00 0.21 0.04 95 1013.5
20260505223317 31 21 3.0 6.0 0.00 0.21 0.04 94 1013.2
20260505222217 31 42 4.0 7.0 0.00 0.21 0.04 94 1012.7
20260505221242 0 47 2.0 4.0 0.00 0.21 0.04
20260505220218 31 41 8.0 13.0 0.00 0.21 0.04 94 1012.9
20260505215238 31 22 3.0 6.0 0.00 0.21 0.04 94 1012.8
20260505214218 32 25 6.0 7.0 0.00 0.21 0.04 95 1012.5
20260505213238 33 53 3.0 6.0 0.00 0.21 0.04 94 1012.6
20260505212218 33 31 4.0 6.0 0.00 0.21 0.04 94 1012.7
20260505211219 34 45 3.0 6.0 0.00 0.21 0.04 94 1012.7
20260505210218 34 24 6.0 11.0 0.00 0.21 0.04 94 1012.7
20260505205216 35 16 6.0 9.0 0.00 0.21 0.04 94 1012.7
20260505204219 35 94 6.0 11.0 0.00 0.21 0.04 94 1012.9
20260505203219 35 42 8.0 13.0 0.00 0.21 0.04 94 1013.2
20260505202239 35 62 5.0 9.0 0.00 0.21 0.04 94 1013.2
20260505201220 35 63 8.0 12.0 0.00 0.21 0.04 93 1013.4
20260505200217 36 27 6.0 10.0 0.00 0.21 0.04 93 1013.4
20260505195216 36 31 10.0 13.0 0.00 0.21 0.04 93 1013.3
20260505194220 36 40 8.0 11.0 0.00 0.21 0.04 93 1013.3
20260505193220 36 31 8.0 11.0 0.00 0.21 0.04 92 1013.3
20260505192217 36 24 7.0 9.0 0.00 0.21 0.04 91 1013.2
20260505191217 36 143 5.0 6.0 0.00 0.21 0.04 91 1013.2
20260505190217 36 36 7.0 10.0 0.00 0.21 0.04 92 1013.3
20260505185257 36 24 8.0 11.0 0.00 0.21 0.04 92 1013.3
20260505184221 35 15 7.0 9.0 0.00 0.21 0.04 91 1013.5
20260505183218 35 17 8.0 10.0 0.00 0.21 0.04 93 1013.8
20260505182218 35 20 7.0 11.0 0.00 0.21 0.04 93 1013.9
20260505181218 35 27 10.0 14.0 0.00 0.21 0.04 93 1014.0
20260505180218 35 36 5.0 12.0 0.00 0.21 0.04 93 1013.9
20260505175218 35 33 7.0 10.0 0.00 0.21 0.04 92 1013.9
20260505174218 35 36 8.0 12.0 0.00 0.21 0.04 93 1014.1
20260505173219 35 57 5.0 10.0 0.00 0.21 0.04 92 1014.3
20260505172220 35 108 5.0 9.0 0.00 0.21 0.04 92 1014.4
20260505171239 35 43 5.0 10.0 0.00 0.21 0.04 92 1014.4
20260505170216 35 41 6.0 10.0 0.00 0.21 0.04 93 1014.4
20260505165217 35 41 11.0 16.0 0.00 0.21 0.04 92 1014.3
20260505164220 35 199 8.0 11.0 0.00 0.21 0.04 93 1014.4
20260505163220 35 330 7.0 12.0 0.00 0.21 0.04 93 1014.4
20260505162237 35 41 7.0 11.0 0.00 0.21 0.04 94 1014.5
20260505161217 34 250 3.0 5.0 0.00 0.21 0.04 93 1014.6
20260505160220 34 135 2.0 2.0 0.00 0.21 0.04 93 1014.6
20260505153238 33 218 7.0 11.0 0.00 0.21 0.04 93 1014.8
20260505152218 33 249 4.0 12.0 0.00 0.21 0.04 94 1014.8
20260505151218 33 12 7.0 9.0 0.00 0.21 0.04 94 1014.8
20260505150218 33 25 2.0 4.0 0.00 0.21 0.04 94 1014.9
20260505140224 32 35 7.0 9.0 0.00 0.21 0.04 94 1014.8
20260505130220 32 35 4.0 5.0 0.00 0.21 0.04 94 1014.4
20260505124221 32 33 3.0 6.0 0.00 0.21 0.04 94 1014.1
20260505123221 32 35 4.0 6.0 0.00 0.21 0.04 94 1014.0
20260505122221 32 50 3.0 6.0 0.00 0.21 0.04 94 1014.1
20260505121221 33 21 4.0 6.0 0.00 0.21 0.04 94 1014.0
20260505120221 33 36 4.0 6.0 0.01 0.21 0.04 94 1014.0
20260505115221 33 56 2.0 4.0 0.01 0.21 0.04 94 1013.9
20260505114226 33 39 4.0 7.0 0.01 0.21 0.04 94 1013.7
20260505113241 34 87 3.0 5.0 0.01 0.21 0.04 93 1013.9